This is the latest recevied weather packets stored in our database for station/object EA3GKP-10. If no packets are shown the sender has not sent any weather packets the latest 10 day(s).
| Time | Temp. | Humidity | Pressure | Rain* | Wind** | Luminosity | Snow |
|---|---|---|---|---|---|---|---|
| 1777836690 | 18.89° C | - | - | 0 mm | 1.34 m/s, 191° | - | - |
| 1777836077 | 18.89° C | - | - | 0 mm | 1.34 m/s, 125° | - | - |
| 1777835774 | 19.44° C | - | - | 0 mm | 0.89 m/s, 172° | - | - |
| 1777835467 | 19.44° C | - | - | 0 mm | 1.34 m/s, 111° | - | - |
| 1777835164 | 19.44° C | - | - | 0 mm | 0.89 m/s, 44° | - | - |
| 1777834858 | 20° C | - | - | 0 mm | 0 m/s | - | - |
| 1777834244 | 20° C | - | - | 0 mm | 0.89 m/s, 143° | - | - |
| 1777833939 | 20° C | - | - | 0 mm | 1.79 m/s, 91° | - | - |
| 1777833633 | 20° C | - | - | 0 mm | 2.68 m/s, 104° | - | - |
| 1777833328 | 20.56° C | - | - | 0 mm | 1.34 m/s, 173° | - | - |
| 1777833025 | 20.56° C | - | - | 0 mm | 0 m/s | - | - |
| 1777832722 | 20° C | - | - | 0 mm | 1.34 m/s, 103° | - | - |
| 1777832417 | 20° C | - | - | 0 mm | 0.89 m/s, 359° | - | - |
| 1777832114 | 20° C | - | - | 0 mm | 1.34 m/s, 87° | - | - |
| 1777831810 | 20° C | - | - | 0 mm | 2.24 m/s, 359° | - | - |
| 1777831504 | 20.56° C | - | - | 0 mm | 1.79 m/s, 46° | - | - |
| 1777831200 | 20° C | - | - | 0 mm | 1.34 m/s, 70° | - | - |
| 1777830897 | 20° C | - | - | 0 mm | 1.79 m/s, 359° | - | - |
| 1777830595 | 20.56° C | - | - | 0 mm | 1.79 m/s, 98° | - | - |
| 1777830290 | 20.56° C | - | - | 0 mm | 0.89 m/s, 101° | - | - |
| 1777829986 | 20° C | - | - | 0 mm | 2.68 m/s, 100° | - | - |
| 1777829684 | 20.56° C | - | - | 0 mm | 1.34 m/s, 135° | - | - |
| 1777829380 | 20.56° C | - | - | 0 mm | 2.24 m/s, 129° | - | - |
| 1777829077 | 20.56° C | - | - | 0 mm | 1.34 m/s, 149° | - | - |
| 1777828773 | 20.56° C | - | - | 0 mm | 1.79 m/s, 149° | - | - |
* Rain latest hour (hover to see other rain measurements)
** Current wind speed in m/s (hover to see current wind gust speed)